Flag for U.S.A. Weather past 2 weeks in St. Croix Falls, Wisconsin, U.S.A.

Now
7 °F

Sunny.


Feels Like: -11 °F
Forecast: -3 / 8 °F
Wind: 16 mph from West

Location: L O Simenstad Municipal Airport

Current Time: Mar 4, 2015 at 11:13:52 AM

Latest Report: Mar 4, 2015 at 10:55 AM


Visibility: 7 mi

Pressure: 30.23 "Hg

Humidity: 47%

Dew point: -9 °F

Location of St. Croix FallsLocation

Historic Weather in St. Croix Falls — Graph

°F

St. Croix Falls temperature yesterday

Maximum temperature yesterday: 29 °F (at 12:55 PM)
Minimum temperature yesterday: 6 °F (at 11:55 PM)
Average temperature yesterday: 21 °F

Past Weeks' High & Low Weather Summary

 TemperatureHumidityPressure
High30 °F (Feb 24, 8:35 AM)100% (Mar 3, 8:35 AM)30.77 "Hg (Mar 3, 8:35 AM)
Low-21 °F (Feb 23, 7:15 AM)29% (Feb 24, 3:15 PM)29.64 "Hg (Feb 24, 4:35 AM)
Average9 °F63%30.23 "Hg
* Reported Feb 17 9:15 AM — Mar 4 9:55 AM, St. Croix Falls, Weather by CustomWeather, © 2015

Note: Actual official high and low records may vary slightly from our data, if they occured in-between our weather recording intervals... More about our weather records

Advertising

St. Croix Falls weather history for previous 24 hours

 ConditionsComfort  
Time TempWeatherWind HumidityBarometerVisibility
9:55 AM
Wed, Mar 4
5 °FSunny.15 mph52%30.22 "Hg10 mi
9:35 AM4 °FSunny.9 mph56%30.22 "Hg10 mi
9:15 AM3 °FSunny.9 mph62%30.22 "Hg10 mi
8:55 AM2 °FSunny.8 mph64%30.21 "Hg10 mi
8:15 AM0 °FScattered clouds.9 mph68%30.20 "Hg10 mi
7:55 AM-1 °FSunny.10 mph71%30.19 "Hg10 mi
7:15 AM-4 °FSunny.9 mph73%30.17 "Hg10 mi
6:55 AM-4 °FSunny.7 mph74%30.16 "Hg10 mi
6:35 AM-4 °FClear.9 mph75%30.16 "Hg10 mi
6:15 AM-3 °FClear.8 mph75%30.15 "Hg10 mi
5:55 AM-3 °FClear.8 mph75%30.13 "Hg10 mi
5:35 AM-3 °FClear.8 mph74%30.13 "Hg10 mi
5:15 AM-3 °FClear.7 mph75%30.12 "Hg10 mi
4:55 AM-2 °FClear.9 mph74%30.11 "Hg10 mi
4:35 AM-2 °FClear.8 mph73%30.11 "Hg10 mi
4:15 AM-1 °FClear.8 mph72%30.11 "Hg10 mi
3:55 AM-1 °FClear.8 mph72%30.10 "Hg10 mi
3:35 AM0 °FClear.7 mph72%30.09 "Hg10 mi
3:15 AM0 °FClear.8 mph70%30.09 "Hg10 mi
2:55 AM1 °FClear.9 mph72%30.09 "Hg10 mi
2:35 AM1 °FClear.8 mph71%30.08 "Hg10 mi
2:15 AM2 °FClear.9 mph71%30.08 "Hg10 mi
1:55 AM2 °FClear.8 mph71%30.07 "Hg10 mi
1:15 AM4 °FClear.9 mph69%30.06 "Hg10 mi
12:55 AM4 °FClear.7 mph66%30.04 "Hg10 mi
12:35 AM5 °FClear.10 mph64%30.03 "Hg10 mi
12:15 AM6 °FClear.13 mph64%30.02 "Hg10 mi
11:55 PM
Tue, Mar 3
6 °FClear.12 mph64%30.01 "Hg10 mi
11:35 PM6 °FClear.14 mph65%30.01 "Hg10 mi
11:15 PM7 °FClear.12 mph63%30.00 "Hg10 mi
10:55 PM8 °FClear.10 mph62%29.99 "Hg10 mi
10:35 PM9 °FClear.13 mph62%30.00 "Hg10 mi
10:15 PM9 °FClear.15 mph62%29.99 "Hg10 mi
9:55 PM10 °FClear.14 mph61%29.99 "Hg10 mi
9:15 PM11 °FClear.18 mph60%29.96 "Hg10 mi
8:55 PM12 °FClear.20 mph62%29.95 "Hg10 mi
8:35 PM13 °FClear.18 mph61%29.94 "Hg10 mi
8:15 PM14 °FClear.18 mph62%29.92 "Hg10 mi
7:55 PM14 °FClear.21 mph62%29.91 "Hg10 mi
7:35 PM15 °FClear.16 mph62%29.90 "Hg10 mi
7:15 PM16 °FClear.18 mph62%29.89 "Hg10 mi
6:55 PM17 °FClear.20 mph63%29.88 "Hg10 mi
6:35 PM18 °FClear.18 mph63%29.87 "Hg10 mi
6:15 PM19 °FClear.14 mph60%29.83 "Hg10 mi
5:55 PM21 °FSunny.16 mph57%29.81 "Hg10 mi
5:15 PM24 °FSunny.18 mph54%29.78 "Hg10 mi
4:55 PM24 °FSunny.22 mph49%29.76 "Hg7 mi
4:35 PM26 °FSunny.21 mph51%29.74 "Hg10 mi
4:15 PM27 °FSunny.17 mph53%29.73 "Hg7 mi
3:55 PM28 °FScattered clouds.20 mph53%29.73 "Hg10 mi
3:15 PM28 °FOvercast.17 mph67%29.71 "Hg10 mi
2:55 PM28 °FOvercast.20 mph72%29.70 "Hg10 mi
2:35 PM29 °FOvercast.14 mph73%29.69 "Hg10 mi
2:15 PM29 °FOvercast.9 mph73%29.68 "Hg10 mi
1:35 PM28 °FLight snow. Mostly cloudy.15 mph77%29.68 "Hg3 mi
1:15 PM29 °FLight snow. Mostly cloudy.12 mph78%29.68 "Hg4 mi
12:55 PM29 °FLight snow. Mostly cloudy.15 mph77%29.68 "Hg3 mi
12:35 PM29 °FLight snow. Overcast.9 mph77%29.69 "Hg5 mi
12:10 PM28 °FLight snow. Overcast.13 mph81%29.68 "Hg4 mi
11:55 AM28 °FLight snow. Mostly cloudy.10 mph80%29.68 "Hg4 mi
11:35 AM27 °FLight snow. Overcast.9 mph85%29.69 "Hg2 mi
11:15 AM26 °FLight snow. Overcast.5 mph89%29.68 "Hg1 mi
Weather by CustomWeather, © 2015

See weather overviewHow to use our weather pages